When you browse on this site, cookies collect data to enhance your experience and personalize the content and advertising you see.
Visit our Privacy Policy to learn more. By continuing to use the site, you agree to this use of cookies and data.
  • In Hungary
  • List of Countries
  • For 7 days
  • Water Temperature
  • Weather Map
  • News
  • Weather Widgets
  • user-avatar
    Login

    Hourly Weather Zverevo

    Today, 14 October, Monday

    Time Temperature Precipitation Wind Pressure Humidity
    00:00 +7°C° 0.1 mm 6 mps 738 mmHg 82%
    01:00 +5°C° 0 mm 6 mps 738 mmHg 82%
    02:00 +5°C° 0 mm 7 mps 739 mmHg 82%
    03:00 +5°C° 0 mm 7 mps 739 mmHg 83%
    04:00 +5°C° 0 mm 7 mps 739 mmHg 84%
    05:00 +4°C° 0 mm 7 mps 740 mmHg 85%
    06:00 +4°C° 0 mm 7 mps 740 mmHg 85%
    07:00 +4°C° 0 mm 7 mps 740 mmHg 84%
    08:00 +5°C° 0 mm 7 mps 741 mmHg 82%
    09:00 +5°C° 0 mm 8 mps 741 mmHg 81%
    10:00 +5°C° 0 mm 7 mps 742 mmHg 80%
    11:00 +6°C° 0 mm 7 mps 742 mmHg 80%
    12:00 +6°C° 0 mm 7 mps 742 mmHg 79%
    13:00 +7°C° 0 mm 6 mps 743 mmHg 77%
    14:00 +7°C° 0 mm 6 mps 743 mmHg 74%
    15:00 +8°C° 0 mm 5 mps 743 mmHg 72%
    16:00 +7°C° 0 mm 5 mps 744 mmHg 75%
    17:00 +6°C° 0 mm 4 mps 744 mmHg 78%
    18:00 +5°C° 0 mm 4 mps 744 mmHg 80%
    19:00 +5°C° 0 mm 4 mps 745 mmHg 82%
    20:00 +4°C° 0 mm 3 mps 745 mmHg 84%
    21:00 +3°C° 0 mm 3 mps 745 mmHg 87%
    22:00 +4°C° 0 mm 2 mps 744 mmHg 88%
    23:00 +4°C° 0 mm 2 mps 744 mmHg 89%

    Tomorrow, 15 October, Tuesday

    Time Temperature Precipitation Wind Pressure Humidity
    00:00 +5°C° 0 mm 2 mps 744 mmHg 90%
    01:00 +5°C° 0 mm 2 mps 743 mmHg 92%
    02:00 +5°C° 0 mm 2 mps 743 mmHg 94%
    03:00 +5°C° 0 mm 2 mps 742 mmHg 96%
    04:00 +5°C° 1 mm 2 mps 742 mmHg 96%
    05:00 +5°C° 1 mm 2 mps 741 mmHg 97%
    06:00 +5°C° 1 mm 2 mps 740 mmHg 97%
    07:00 +5°C° 0.4 mm 2 mps 740 mmHg 96%
    08:00 +6°C° 0.4 mm 2 mps 740 mmHg 95%
    09:00 +6°C° 0.4 mm 2 mps 740 mmHg 93%
    10:00 +6°C° 0.1 mm 2 mps 740 mmHg 93%
    11:00 +6°C° 0.1 mm 2 mps 740 mmHg 93%
    12:00 +6°C° 0.1 mm 2 mps 741 mmHg 93%
    13:00 +4°C° 0.2 mm 3 mps 742 mmHg 93%
    14:00 +4°C° 0.2 mm 4 mps 742 mmHg 92%
    15:00 +4°C° 0.2 mm 4 mps 743 mmHg 92%
    16:00 +4°C° 0.1 mm 4 mps 744 mmHg 90%
    17:00 +3°C° 0.1 mm 4 mps 745 mmHg 88%
    18:00 +3°C° 0.1 mm 4 mps 745 mmHg 86%
    19:00 +1°C° 0 mm 4 mps 746 mmHg 85%
    20:00 +1°C° 0 mm 4 mps 747 mmHg 84%
    21:00 0°C° 0 mm 5 mps 747 mmHg 84%
    22:00 0°C° 0 mm 5 mps 748 mmHg 87%
    23:00 0°C° 0 mm 5 mps 748 mmHg 90%

    Day after tomorrow, 16 October, Wednesday

    Time Temperature Precipitation Wind Pressure Humidity
    00:00 0°C° 0 mm 5 mps 749 mmHg 93%
    01:00 +1°C° 0 mm 5 mps 750 mmHg 91%
    02:00 +1°C° 0 mm 5 mps 750 mmHg 90%
    03:00 +1°C° 0 mm 5 mps 751 mmHg 88%
    04:00 0°C° 0 mm 5 mps 751 mmHg 89%
    05:00 0°C° 0 mm 4 mps 752 mmHg 89%
    06:00 0°C° 0 mm 4 mps 752 mmHg 90%
    07:00 0°C° 0 mm 5 mps 753 mmHg 86%
    08:00 0°C° 0 mm 5 mps 753 mmHg 82%
    09:00 +1°C° 0 mm 5 mps 754 mmHg 78%
    10:00 +1°C° 0 mm 5 mps 754 mmHg 77%
    11:00 +1°C° 0 mm 5 mps 754 mmHg 76%
    12:00 +1°C° 0 mm 5 mps 754 mmHg 75%
    13:00 +1°C° 0 mm 5 mps 755 mmHg 74%
    14:00 +3°C° 0 mm 4 mps 755 mmHg 73%
    15:00 +3°C° 0 mm 4 mps 755 mmHg 72%
    16:00 +1°C° 0 mm 4 mps 755 mmHg 76%
    17:00 +1°C° 0 mm 3 mps 756 mmHg 81%
    18:00 +2°C° 0 mm 2 mps 756 mmHg 85%
    19:00 +1°C° 0 mm 2 mps 756 mmHg 87%
    20:00 +1°C° 0 mm 2 mps 756 mmHg 88%
    21:00 +2°C° 0 mm 1 mps 756 mmHg 90%
    22:00 +2°C° 0 mm 1 mps 756 mmHg 90%
    23:00 +1°C° 0 mm 2 mps 756 mmHg 91%

    17 October, Thursday

    Time Temperature Precipitation Wind Pressure Humidity
    00:00 +1°C° 0 mm 2 mps 756 mmHg 91%
    01:00 +1°C° 0 mm 2 mps 756 mmHg 90%
    02:00 +1°C° 0 mm 2 mps 756 mmHg 90%
    03:00 +1°C° 0 mm 2 mps 756 mmHg 90%
    04:00 0°C° 0.1 mm 3 mps 755 mmHg 92%
    05:00 0°C° 0.1 mm 3 mps 755 mmHg 94%
    06:00 -1°C° 0.1 mm 4 mps 754 mmHg 96%
    07:00 -1°C° 0.3 mm 4 mps 753 mmHg 93%
    08:00 0°C° 0.3 mm 5 mps 753 mmHg 91%
    09:00 0°C° 0.3 mm 5 mps 752 mmHg 89%
    10:00 +1°C° 0 mm 6 mps 751 mmHg 85%
    11:00 +2°C° 0 mm 6 mps 750 mmHg 80%
    12:00 +3°C° 0 mm 6 mps 750 mmHg 75%
    13:00 +3°C° 0 mm 7 mps 748 mmHg 74%
    14:00 +4°C° 0 mm 7 mps 747 mmHg 73%
    15:00 +4°C° 0 mm 7 mps 746 mmHg 72%
    16:00 +4°C° 0.7 mm 7 mps 745 mmHg 77%
    17:00 +5°C° 0.7 mm 6 mps 744 mmHg 81%
    18:00 +5°C° 0.7 mm 6 mps 744 mmHg 86%
    19:00 +7°C° 0.3 mm 6 mps 743 mmHg 87%
    20:00 +6°C° 0.3 mm 7 mps 742 mmHg 89%
    21:00 +8°C° 0.3 mm 7 mps 741 mmHg 90%
    22:00 +8°C° 0.4 mm 7 mps 740 mmHg 90%
    23:00 +9°C° 0.4 mm 7 mps 740 mmHg 90%

    18 October, Friday

    Time Temperature Precipitation Wind Pressure Humidity
    00:00 +9°C° 0.4 mm 8 mps 739 mmHg 91%
    01:00 +6°C° 0.4 mm 8 mps 740 mmHg 88%
    02:00 +4°C° 0.4 mm 8 mps 740 mmHg 85%
    03:00 +2°C° 0.4 mm 9 mps 740 mmHg 82%
    04:00 +1°C° 0 mm 9 mps 741 mmHg 80%
    05:00 0°C° 0 mm 9 mps 742 mmHg 78%
    06:00 -1°C° 0 mm 9 mps 743 mmHg 76%
    07:00 -1°C° 0 mm 9 mps 743 mmHg 76%
    08:00 -1°C° 0 mm 9 mps 744 mmHg 76%
    09:00 -3°C° 0 mm 9 mps 745 mmHg 76%
    10:00 -3°C° 0 mm 9 mps 746 mmHg 75%
    11:00 -1°C° 0 mm 9 mps 746 mmHg 74%
    12:00 -1°C° 0 mm 9 mps 747 mmHg 74%
    13:00 -3°C° 0 mm 9 mps 748 mmHg 74%
    14:00 -2°C° 0 mm 8 mps 748 mmHg 74%
    15:00 -2°C° 0 mm 8 mps 749 mmHg 75%
    16:00 -4°C° 0 mm 8 mps 750 mmHg 75%
    17:00 -4°C° 0 mm 8 mps 751 mmHg 76%
    18:00 -3°C° 0 mm 7 mps 751 mmHg 77%
    19:00 -4°C° 0 mm 7 mps 752 mmHg 77%
    20:00 -4°C° 0 mm 7 mps 753 mmHg 77%
    21:00 -4°C° 0 mm 6 mps 753 mmHg 78%
    22:00 -4°C° 0 mm 6 mps 754 mmHg 77%
    23:00 -4°C° 0 mm 6 mps 754 mmHg 77%

    19 October, Saturday

    Time Temperature Precipitation Wind Pressure Humidity
    00:00 -4°C° 0 mm 5 mps 754 mmHg 76%
    01:00 -5°C° 0 mm 5 mps 755 mmHg 78%
    02:00 -4°C° 0 mm 4 mps 755 mmHg 79%
    03:00 -4°C° 0 mm 4 mps 755 mmHg 81%
    04:00 -5°C° 0 mm 4 mps 756 mmHg 81%
    05:00 -5°C° 0 mm 4 mps 756 mmHg 81%
    06:00 -5°C° 0 mm 3 mps 757 mmHg 81%
    07:00 -4°C° 0 mm 3 mps 757 mmHg 77%
    08:00 -4°C° 0 mm 3 mps 757 mmHg 73%
    09:00 -2°C° 0 mm 3 mps 758 mmHg 69%
    10:00 -1°C° 0 mm 3 mps 758 mmHg 63%
    11:00 0°C° 0 mm 3 mps 758 mmHg 58%
    12:00 +1°C° 0 mm 3 mps 758 mmHg 52%
    13:00 +2°C° 0 mm 2 mps 758 mmHg 53%
    14:00 +2°C° 0 mm 2 mps 758 mmHg 53%
    15:00 +2°C° 0 mm 2 mps 758 mmHg 54%
    16:00 +1°C° 0 mm 2 mps 758 mmHg 59%
    17:00 +1°C° 0 mm 1 mps 758 mmHg 64%
    18:00 0°C° 0 mm 1 mps 758 mmHg 68%
    19:00 0°C° 0 mm 1 mps 758 mmHg 69%
    20:00 0°C° 0 mm 1 mps 758 mmHg 69%
    21:00 0°C° 0 mm 1 mps 758 mmHg 70%
    22:00 -2°C° 0 mm 2 mps 758 mmHg 70%
    23:00 -2°C° 0 mm 2 mps 758 mmHg 70%
    Show more